Stations météo

réclame
Mon MeteoGroup
Saint-Brieuc, France (7120): Température de l'air & dewpoint: 20.06.2019 10:00:00 - 26.06.2019 10:00:00 (CEST)Saint-Brieuc, France (7120): Température de l'air 5cm: 20.06.2019 10:00:00 - 26.06.2019 10:00:00 (CEST)Saint-Brieuc, France (7120): Température de l'air -20cm & Température de l'air -100cm: 20.06.2019 10:00:00 - 26.06.2019 10:00:00 (CEST)Saint-Brieuc, France (7120): Vitesse du vent & gusts: 20.06.2019 10:00:00 - 26.06.2019 10:00:00 (CEST)Saint-Brieuc, France (7120): Direction du vent: 20.06.2019 10:00:00 - 26.06.2019 10:00:00 (CEST)Saint-Brieuc, France (7120): reduced air pressure: 20.06.2019 10:00:00 - 26.06.2019 10:00:00 (CEST)Saint-Brieuc, France (7120): visibility: 20.06.2019 10:00:00 - 26.06.2019 10:00:00 (CEST)Saint-Brieuc, France (7120): Ensoleillement: 20.06.2019 10:00:00 - 26.06.2019 10:00:00 (CEST)Saint-Brieuc, France (7120): Quantités de précipitations: 20.06.2019 10:00:00 - 26.06.2019 10:00:00 (CEST)
Date & Time tt [°C] td [°C] tt 5cm [°C] tt -20cm [°C] tt -100cm [°C] ff [km/h] ff [knt] fx [km/h] fx [knt] dd ppp [hPa] vv [km] sd [min] rr [mm]
26.06.2019 10:00:00 17,6 17,6 17,1 17,1 15,0 3 2 17 9 NW 1022,0 3,6 0 0,0
26.06.2019 09:00:00 16,5 16,5 15,9 17,1 15,0 7 4 13 7 E 1021,0 0,9 0 0,0
26.06.2019 08:00:00 15,8 15,8 15,6 17,2 15,0 9 5 18 10 E 1021,4 0,3 0 0,0
26.06.2019 07:00:00 15,6 15,6 15,3 17,2 15,0 0 0 14 7 N 1021,9 2,6 0 1,4
26.06.2019 06:00:00 15,7 15,5 15,5 17,3 15,0 2 1 13 7 ESE 1022,4 4,2 0 0,0
26.06.2019 05:00:00 15,6 15,6 15,2 17,3 14,9 10 5 15 8 NE 1021,1 5 0 0,0
26.06.2019 04:00:00 15,1 15,1 13,9 17,4 14,9 3 1 8 4 E 1021,9 4,4 0 0,0
26.06.2019 03:00:00 14,5 14,5 13,4 17,5 15,0 5 3 10 5 NNE 1021,8 3,6 0 0,0
26.06.2019 02:00:00 14,4 14,4 13,0 17,6 14,9 3 1 8 5 NNE 1021,9 4,4 0 0,0
26.06.2019 01:00:00 14,4 14,2 13,6 17,7 14,9 5 3 8 4 NE 1021,9 5 0 0,0
26.06.2019 00:00:00 14,5 14,3 11,7 17,8 14,9 2 1 7 4 N 1022,2 3,9 0 0,0
25.06.2019 23:00:00 15,0 14,5 12,3 17,9 14,9 0 0 6 4 N 1022,0 4,4 0 0,0
25.06.2019 22:00:00 16,0 15,2 14,9 17,9 14,9 3 2 11 6 ENE 1021,2 10 0 0,0
25.06.2019 21:00:00 16,6 15,3 17,3 17,9 14,9 9 5 12 6 N 1020,9 17 7 0,0
25.06.2019 20:00:00 17,0 15,2 17,4 17,8 14,9 8 4 13 7 NE 1020,7 20 0 0,0
25.06.2019 19:00:00 18,1 15,5 20,8 17,6 14,9 10 5 18 10 ENE 1020,6 20 40 0,0
25.06.2019 18:00:00 18,6 15,5 22,5 17,4 14,9 11 6 17 9 NE 1020,2 20 54 0,0
25.06.2019 17:00:00 18,7 15,8 21,8 17,2 14,9 11 6 20 11 ENE 1020,0 20 54 0,0
25.06.2019 16:00:00 19,1 16,9 21,3 17,0 14,9 12 6 19 10 NE 1019,6 19 19 0,0
25.06.2019 15:00:00 18,1 16,1 20,8 16,9 14,9 13 7 18 10 NE 1019,4 20 1 0,0
25.06.2019 14:00:00 18,7 17,0 18,9 16,7 14,9 8 5 15 8 NE 1019,0 7 9 0,0
25.06.2019 13:00:00 17,2 15,7 18,1 16,6 14,9 6 4 10 5 NE 1019,1 17 0 0,0
25.06.2019 12:00:00 16,6 15,6 16,5 16,6 14,9 6 3 13 7 NNW 1018,6 13 0 0,0
25.06.2019 11:00:00 16,2 15,1 17,2 16,5 14,9 7 4 15 8 NNW 1018,3 15 0 0,0
25.06.2019 10:00:00 15,6 15,0 15,6 16,5 14,8 9 5 14 8 WNW 1018,0 10 0 0,0
25.06.2019 09:00:00 14,8 14,5 14,8 16,5 14,9 6 4 12 7 NNW 1017,6 9 0 0,0
25.06.2019 08:00:00 14,3 14,3 14,3 16,5 14,8 6 3 13 7 NW 1017,4 4,8 0 0,0
25.06.2019 07:00:00 14,0 14,0 13,9 16,6 14,9 6 3 14 7 N 1017,2 4,2 0 0,0
25.06.2019 06:00:00 13,9 13,9 13,8 16,6 14,8 8 4 17 9 N 1017,0 4,0 0 0,0
25.06.2019 05:00:00 13,9 13,9 13,9 16,7 14,8 8 4 11 6 N 1017,0 2,9 0 0,8
25.06.2019 04:00:00 14,0 14,0 13,9 16,8 14,8 8 4 13 7 N 1017,2 2,7 0 0,6
25.06.2019 03:00:00 14,0 14,0 13,8 16,8 14,8 6 4 16 8 NNE 1017,5 5 0 0,4
25.06.2019 02:00:00 13,9 13,9 13,7 16,9 14,8 9 5 15 8 N 1017,4 3,3 0 1,6
25.06.2019 01:00:00 13,9 13,9 13,6 17,0 14,8 5 3 10 6 NNE 1017,6 7 0 0,2
25.06.2019 00:00:00 13,8 13,5 13,7 17,0 14,8 5 3 9 5 N 1018,1 20 0 0,0
24.06.2019 23:00:00 14,2 14,2 14,1 17,1 14,8 5 3 11 6 NW 1017,8 3,3 0 0,0
24.06.2019 22:00:00 14,3 14,3 14,1 17,1 14,8 5 3 14 7 NE 1017,5 1,3 0 1,8
24.06.2019 21:00:00 14,7 14,5 14,4 17,1 14,8 6 4 11 6 ESE 1018,7 3,5 0 0,4
24.06.2019 20:00:00 15,3 14,8 15,4 17,1 14,8 6 4 11 6 NE 1018,0 4,5 0 0,0
24.06.2019 19:00:00 15,5 14,9 16,0 17,1 14,8 6 3 14 7 N 1017,8 6 0 0,2
24.06.2019 18:00:00 15,9 14,9 16,4 17,1 14,8 2 1 13 7 NE 1018,0 7 0 0,4
24.06.2019 17:00:00 15,3 14,7 15,9 17,0 14,8 7 4 14 7 N 1017,6 7 0 0,0
24.06.2019 16:00:00 15,0 14,4 16,2 17,0 14,8 10 5 15 8 NNE 1017,1 7 0 0,0
24.06.2019 15:00:00 15,5 15,0 16,7 17,0 14,8 9 5 20 11 NE 1017,3 9 0 0,0
24.06.2019 14:00:00 15,2 14,9 16,5 16,9 14,7 15 8 22 12 NNE 1017,2 6 0 0,0
24.06.2019 13:00:00 15,5 15,0 16,5 16,9 14,7 15 8 22 12 ENE 1017,4 6 0 0,0
24.06.2019 12:00:00 16,5 14,7 18,0 16,8 14,8 13 7 20 11 ENE 1017,4 17 0 0,0
24.06.2019 11:00:00 16,6 14,4 18,0 16,8 14,8 9 5 12 7 N 1016,9 19 0 0,0
24.06.2019 10:00:00 17,0 14,8 16,0 16,8 14,7 2 1 11 6 WNW 1016,4 20 0 0,0
24.06.2019 09:00:00 15,4 14,6 15,2 16,9 14,7 6 3 10 5 SSE 1015,8 17 0 0,0
24.06.2019 08:00:00 15,3 14,3 14,5 16,9 14,7 5 3 10 5 S 1016,0 20 0 0,0
24.06.2019 07:00:00 15,0 13,7 14,1 17,0 14,7 6 4 16 9 SE 1015,0 20 0 0,0
24.06.2019 06:00:00 15,3 13,8 14,5 17,1 14,7 6 4 15 8 SSE 1015,8 20 0 0,0
24.06.2019 05:00:00 15,4 14,6 14,8 17,2 14,7 12 6 16 8 WSW 1014,3 16 0 0,0
24.06.2019 04:00:00 15,8 15,2 14,7 17,2 14,7 11 6 17 9 WSW 1014,6 13 0 0,0
24.06.2019 03:00:00 15,6 14,8 14,8 17,3 14,7 8 4 12 7 W 1013,7 18 0 0,0
24.06.2019 02:00:00 16,1 15,3 14,9 17,4 14,7 6 3 19 10 WSW 1014,0 17 0 0,0
24.06.2019 01:00:00 17,1 15,6 15,4 17,5 14,7 13 7 19 10 W 1013,4 20 0 0,0
24.06.2019 00:00:00 17,8 16,1 16,4 17,5 14,7 13 7 15 8 W 1013,3 20 0 0,0
23.06.2019 23:00:00 18,2 17,0 17,1 17,5 14,7 8 5 13 7 W 1012,5 18 0 0,0
23.06.2019 22:00:00 18,9 17,0 18,2 17,5 14,7 7 4 15 8 WNW 1011,9 19 0 0,0
23.06.2019 21:00:00 19,3 17,1 18,9 17,5 14,7 6 4 10 6 W 1011,4 20 0 0,0
23.06.2019 20:00:00 21,2 17,6 21,5 17,4 14,7 8 4 12 6 N 1011,2 20 15 0,0
23.06.2019 19:00:00 20,7 17,5 21,3 17,3 14,7 6 4 17 9 NE 1010,6 20 0 0,0
23.06.2019 18:00:00 20,4 16,8 21,2 17,2 14,7 8 5 19 10 E 1011,0 19 0 0,0
23.06.2019 17:00:00 21,4 17,4 23,6 17,0 14,7 15 8 25 14 ENE 1011,2 18 31 0,0
23.06.2019 16:00:00 20,4 17,0 18,7 16,9 14,7 12 6 18 10 ENE 1011,8 19 11 0,0
23.06.2019 15:00:00 17,4 15,4 18,2 16,8 14,7 8 4 13 7 NNE 1011,9 19 0 0,0
23.06.2019 14:00:00 17,9 15,3 18,8 16,7 14,7 9 5 16 9 NNE 1012,7 20 0 0,0
23.06.2019 13:00:00 19,9 16,5 18,9 16,6 14,7 9 5 20 11 ESE 1012,6 20 10 0,0
23.06.2019 12:00:00 18,5 16,3 19,4 16,5 14,7 10 5 16 8 E 1012,3 20 0 0,0
23.06.2019 11:00:00 17,9 15,2 17,2 16,5 14,7 0 0 6 3 N 1013,9 19 0 0,0
23.06.2019 10:00:00 16,7 14,2 16,3 16,5 14,6 5 3 10 5 SSE 1013,9 20 0 0,0
23.06.2019 09:00:00 15,8 13,6 14,6 16,5 14,6 6 4 13 7 SE 1013,1 20 0 0,0
23.06.2019 08:00:00 15,4 13,2 14,4 16,5 14,6 9 5 19 10 SE 1013,0 20 0 0,2
23.06.2019 07:00:00 15,4 12,5 14,5 16,6 14,6 8 4 12 7 SE 1013,0 20 0 0,0
23.06.2019 06:00:00 15,4 12,3 14,4 16,7 14,6 5 3 13 7 SSE 1013,4 20 0 0,0
23.06.2019 05:00:00 15,2 12,5 14,0 16,8 14,6 6 3 16 8 SE 1013,7 20 0 0,0
23.06.2019 04:00:00 15,3 12,6 13,8 16,8 14,6 5 3 9 5 SE 1014,2 20 0 0,0
23.06.2019 03:00:00 15,9 12,8 15,0 16,9 14,6 4 2 16 9 SE 1014,8 20 0 0,0
23.06.2019 02:00:00 15,9 13,2 14,6 17,0 14,6 7 4 13 7 ESE 1015,4 20 0 0,0
23.06.2019 01:00:00 15,8 13,3 14,6 17,1 14,6 5 3 13 7 ESE 1015,8 20 0 0,0
23.06.2019 00:00:00 16,1 13,2 14,3 17,2 14,6 8 4 17 9 E 1016,1 20 0 0,0
22.06.2019 23:00:00 15,7 13,5 14,2 17,3 14,6 5 3 11 6 E 1016,1 20 0 0,0
22.06.2019 22:00:00 15,9 13,7 15,2 17,3 14,6 9 5 20 11 ENE 1015,9 20 0 0,0
22.06.2019 21:00:00 17,3 14,0 17,2 17,3 14,6 15 8 25 14 ENE 1016,0 20 43 0,0
22.06.2019 20:00:00 18,8 13,9 19,7 17,3 14,6 18 10 34 19 ENE 1016,3 20 57 0,0
22.06.2019 19:00:00 19,5 13,0 19,6 17,2 14,6 21 12 34 19 ENE 1016,0 20 43 0,0
22.06.2019 18:00:00 19,2 12,7 20,6 17,1 14,6 19 11 34 18 ENE 1016,7 20 34 0,0
22.06.2019 17:00:00 20,2 13,4 21,5 16,9 14,6 19 10 29 15 ENE 1016,8 20 22 0,0
22.06.2019 16:00:00 20,9 14,1 22,6 16,6 14,6 16 9 24 13 ENE 1017,1 20 39 0,0
22.06.2019 15:00:00 20,9 14,5 21,5 16,3 14,6 16 8 24 13 ENE 1017,5 20 33 0,0
22.06.2019 14:00:00 19,3 14,3 22,0 16,1 14,6 18 10 26 14 NE 1018,2 20 43 0,0
22.06.2019 13:00:00 19,4 14,0 21,5 15,8 14,6 16 8 25 14 ENE 1018,5 20 31 0,0
22.06.2019 12:00:00 20,1 14,0 22,5 15,5 14,6 6 4 19 10 E 1018,9 18 60 0,0
22.06.2019 11:00:00 17,9 12,8 20,1 15,4 14,6 13 7 22 12 ESE 1019,3 20 60 0,0
22.06.2019 10:00:00 16,0 11,6 17,2 15,3 14,6 14 8 23 12 SE 1019,7 20 60 0,0
22.06.2019 09:00:00 13,3 13,3 12,6 15,3 14,6 6 3 11 6 ESE 1020,3 2,3 45 0,0
22.06.2019 08:00:00 12,0 12,0 11,1 15,3 14,6 6 3 11 6 SSE 1020,7 0,2 39 0,0
22.06.2019 07:00:00 11,0 11,0 7,7 15,4 14,6 5 3 8 4 SSE 1020,7 0,2 4 0,0
22.06.2019 06:00:00 10,0 10,0 7,2 15,5 14,6 2 1 8 5 SSE 1021,2 8 0 0,0
22.06.2019 05:00:00 10,0 10,0 5,3 15,7 14,6 3 2 4 2 ESE 1021,4 7 0 0,0
22.06.2019 04:00:00 9,5 9,2 5,2 15,9 14,6 0 0 6 3 N 1021,7 0,7 0 0,2
22.06.2019 03:00:00 10,7 10,5 5,9 16,0 14,6 5 3 9 5 SE 1022,1 12 0 0,0
22.06.2019 02:00:00 10,2 9,6 5,9 16,2 14,6 0 0 7 4 N 1022,4 8 0 0,0
22.06.2019 01:00:00 11,0 10,7 5,7 16,4 14,6 6 3 7 4 ENE 1022,3 19 0 0,0
22.06.2019 00:00:00 10,5 9,7 6,1 16,5 14,6 4 2 5 3 N 1022,9 17 0 0,0
21.06.2019 23:00:00 11,5 10,7 7,7 16,6 14,6 0 0 8 5 N 1023,0 20 0 0,0
21.06.2019 22:00:00 12,9 11,3 10,8 16,7 14,6 5 3 11 6 NE 1022,7 20 22 0,0
21.06.2019 21:00:00 13,4 11,3 13,4 16,7 14,6 8 4 19 10 NE 1022,5 20 3 0,0
21.06.2019 20:00:00 15,5 11,1 17,9 16,6 14,6 12 6 20 11 NE 1022,1 20 42 0,0
21.06.2019 19:00:00 15,8 10,1 18,4 16,6 14,6 14 8 20 11 NNE 1022,1 20 12 0,0
21.06.2019 18:00:00 16,2 11,6 19,9 16,4 14,6 14 7 22 12 NNE 1021,8 20 30 0,0
21.06.2019 17:00:00 16,3 11,4 20,7 16,2 14,6 12 6 25 13 NNE 1021,9 20 29 0,0
21.06.2019 16:00:00 16,9 12,2 18,9 16,1 14,6 12 7 22 12 NE 1022,0 20 25 0,0
21.06.2019 15:00:00 15,3 11,7 18,2 15,9 14,6 13 7 23 13 NE 1022,0 20 0 0,0
21.06.2019 14:00:00 16,2 11,8 20,7 15,6 14,6 16 9 27 14 NE 1021,8 20 46 0,0
21.06.2019 13:00:00 17,5 13,0 18,0 15,3 14,6 11 6 18 10 ENE 1021,5 20 32 0,0
21.06.2019 12:00:00 16,1 9,5 16,1 15,2 14,6 9 5 16 8 WNW 1021,7 20 18 0,0
21.06.2019 11:00:00 15,1 9,7 16,6 15,0 14,6 10 5 16 9 WNW 1021,5 20 47 0,0
21.06.2019 10:00:00 14,4 11,2 16,6 14,9 14,5 9 5 17 9 W 1021,5 20 49 0,0
21.06.2019 09:00:00 13,4 12,0 14,8 14,9 14,5 8 5 13 7 NW 1021,4 20 60 0,0
21.06.2019 08:00:00 12,0 11,1 10,5 15,0 14,6 9 5 11 6 W 1021,2 19 60 0,0
21.06.2019 07:00:00 9,6 9,6 6,4 15,2 14,6 9 5 11 6 WSW 1020,9 16 23 0,0
21.06.2019 06:00:00 9,8 9,7 6,9 15,3 14,6 4 2 9 5 WSW 1020,7 20 0 0,0
21.06.2019 05:00:00 9,3 8,8 6,6 15,4 14,5 7 4 10 6 WSW 1020,5 19 0 0,0
21.06.2019 04:00:00 10,0 9,7 7,2 15,6 14,5 7 4 10 5 WSW 1020,4 20 0 0,0
21.06.2019 03:00:00 10,5 9,9 6,5 15,7 14,5 7 4 11 6 WSW 1020,3 20 0 0,0
21.06.2019 02:00:00 9,4 8,5 6,7 15,9 14,5 9 5 11 6 WNW 1020,3 20 0 0,0
21.06.2019 01:00:00 9,9 8,8 7,0 16,0 14,5 6 4 9 5 W 1020,3 20 0 0,0
21.06.2019 00:00:00 10,5 9,1 7,4 16,2 14,5 5 3 11 6 WNW 1019,9 20 0 0,0
20.06.2019 23:00:00 11,2 8,8 7,9 16,3 14,5 6 3 15 8 WNW 1019,6 20 0 0,0
20.06.2019 22:00:00 13,3 9,0 12,2 16,4 14,5 12 6 21 11 WNW 1018,9 20 48 0,0
20.06.2019 21:00:00 15,0 8,9 14,8 16,4 14,5 14 8 21 11 WNW 1018,5 20 27 0,0
20.06.2019 20:00:00 15,5 9,8 16,0 16,4 14,5 14 7 23 12 WNW 1018,1 20 3 0,0
20.06.2019 19:00:00 16,0 10,1 15,8 16,4 14,5 13 7 26 14 NW 1018,1 20 0 0,0
20.06.2019 18:00:00 16,5 9,2 17,6 16,2 14,5 15 8 24 13 NW 1017,8 20 9 0,0
20.06.2019 17:00:00 17,1 10,9 18,7 16,1 14,5 13 7 24 13 NNW 1017,5 20 20 0,0
20.06.2019 16:00:00 16,6 10,9 13,9 16,0 14,5 12 7 23 13 WNW 1017,7 20 1 0,0
20.06.2019 15:00:00 15,0 11,4 14,0 15,9 14,5 13 7 20 11 W 1017,7 18 0 0,0
20.06.2019 14:00:00 15,7 11,1 16,6 15,8 14,5 12 7 22 12 WNW 1017,4 20 0 0,0
20.06.2019 13:00:00 15,8 10,3 16,8 15,7 14,5 19 10 30 16 WNW 1017,2 20 10 0,0
20.06.2019 12:00:00 15,6 10,1 16,9 15,6 14,5 16 9 26 14 WNW 1016,8 20 12 0,0
20.06.2019 11:00:00 15,0 10,2 15,6 15,5 14,5 14 8 24 13 W 1016,7 20 22 0,0
20.06.2019 10:00:00 14,7 10,9 15,1 15,4 14,5 14 8 26 14 W 1016,5 20 50 0,2

tt = Température de l'air
td = dewpoint
tt 5cm = Température de l'air 5cm
tt -20cm = Température de l'air -20cm
tt -100cm = Température de l'air -100cm
ff = Vitesse du vent
fx = gusts
dd = Direction du vent
ppp = reduced air pressure
vv = visibility
sd = Ensoleillement
rr = Quantités de précipitations

stations d'obs. à proximité